Weather History for Sitka, AK

Change the Weather History Date:

Friday, September 27, 2013

  Actual Average Record
Temperature  
Mean Temperature 52 °F -  
Max Temperature 54 °F 55 °F 64 °F (1976)
Min Temperature 50 °F 46 °F 33 °F (1983)
Degree Days  
Heating Degree Days 14    
Growing Degree Days 2 (Base 50)    
Moisture  
Dew Point 46 °F    
Average Humidity 84    
Maximum Humidity 93    
Minimum Humidity 64    
Precipitation  
Precipitation 0.81 in - - ()
Sea Level Pressure  
Sea Level Pressure 29.42 in    
Wind  
Wind Speed 10 mph (ESE)    
Max Wind Speed 25 mph    
Max Gust Speed 33 mph    
Visibility 8 miles    
Events Rain    
Averages and records for this station are not official NWS values.
T = Trace of Precipitation, MM = Missing Value Source: NWS Daily Summary

Daily Weather History Graph

Daily Weather History Graph

Search for Another Location

Airport:

Trip Planner

Search our weather history database for the weather conditions in past years. The results will help you decide how hot, cold, wet, or windy it might be!

Date:

Astronomy

Sep. 27, 2013 Rise Set
Actual Time 6:57 AM AKDT 6:45 PM AKDT
Civil Twilight 6:19 AM AKDT 7:23 PM AKDT
Nautical Twilight 5:34 AM AKDT 8:08 PM AKDT
Astronomical Twilight 4:47 AM AKDT 8:55 PM AKDT
Moon 11:53 PM AKDT (9/27) 3:31 PM AKDT (9/27)
Length of Visible Light 13h 04m
Length of Day
11h 48m
Last Quarter, 44% of the Moon is Illuminated
Sep 27
Last Quarter
Oct 4
New
Oct 11
First Quarter
Oct 18
Full
Oct 26
Last Quarter

Hourly Weather History & Observations

Time (AKDT) Temp. Dew Point Humidity Pressure Visibility Wind Dir Wind Speed Gust Speed Precip Events Conditions
12:20 AM 50.0 °F 46.9 °F 89% 29.68 in 10.0 mi ENE 6.9 mph - 0.01 in Rain Light Rain
12:53 AM 50.0 °F 46.9 °F 89% 29.67 in 10.0 mi East 10.4 mph - 0.01 in Rain Light Rain
1:16 AM 50.0 °F 46.9 °F 89% 29.66 in 6.0 mi ESE 8.1 mph - 0.02 in Rain Light Rain
1:53 AM 50.0 °F 46.9 °F 89% 29.65 in 10.0 mi East 8.1 mph - 0.02 in   Overcast
2:53 AM 51.1 °F 46.0 °F 83% 29.64 in 10.0 mi ESE 10.4 mph - N/A   Overcast
3:53 AM 51.1 °F 46.0 °F 83% 29.63 in 9.0 mi ESE 10.4 mph - N/A   Overcast
4:35 AM 51.1 °F 46.9 °F 86% 29.62 in 10.0 mi ESE 8.1 mph - 0.00 in   Overcast
4:53 AM 50.0 °F 46.9 °F 89% 29.61 in 10.0 mi East 6.9 mph - 0.01 in Rain Light Rain
5:01 AM 50.0 °F 46.9 °F 89% 29.61 in 5.0 mi ESE 10.4 mph - 0.03 in Rain Heavy Rain
5:13 AM 50.0 °F 46.9 °F 89% 29.61 in 3.0 mi ESE 3.5 mph - 0.12 in Rain Heavy Rain
5:24 AM 50.0 °F 48.0 °F 93% 29.60 in 2.5 mi East 4.6 mph - 0.21 in Rain Heavy Rain
5:32 AM 50.0 °F 46.9 °F 89% 29.60 in 5.0 mi East 8.1 mph - 0.22 in Rain Light Rain
5:53 AM 50.0 °F 46.9 °F 89% 29.60 in 9.0 mi East 10.4 mph - 0.23 in Rain Light Rain
6:53 AM 50.0 °F 46.9 °F 89% 29.58 in 10.0 mi East 9.2 mph - 0.20 in   Overcast
7:53 AM 51.1 °F 46.9 °F 86% 29.55 in 6.0 mi SE 8.1 mph - 0.02 in Rain Light Rain
8:53 AM 51.1 °F 46.9 °F 86% 29.53 in 8.0 mi East 8.1 mph - 0.03 in Rain Light Rain
9:00 AM 50.0 °F 48.0 °F 93% 29.52 in 8.0 mi East 8.1 mph - 0.00 in Rain Light Rain
9:53 AM 51.1 °F 46.9 °F 86% 29.49 in 10.0 mi ESE 9.2 mph - 0.02 in Rain Light Rain
10:53 AM 51.1 °F 46.9 °F 86% 29.47 in 10.0 mi ESE 12.7 mph - 0.00 in Rain Light Rain
11:53 AM 52.0 °F 46.0 °F 80% 29.42 in 10.0 mi ESE 12.7 mph - 0.00 in Rain Light Rain
12:53 PM 51.1 °F 46.0 °F 83% 29.39 in 7.0 mi ESE 12.7 mph - 0.04 in Rain Light Rain
1:53 PM 51.1 °F 46.0 °F 83% 29.35 in 8.0 mi ESE 12.7 mph - 0.03 in Rain Light Rain
2:53 PM 50.0 °F 46.0 °F 86% 29.30 in 5.0 mi ESE 13.8 mph - 0.04 in Rain Light Rain
3:53 PM 50.0 °F 45.0 °F 83% 29.25 in 8.0 mi ESE 12.7 mph - 0.06 in Rain Light Rain
4:53 PM 50.0 °F 46.9 °F 89% 29.21 in 6.0 mi SE 11.5 mph - 0.04 in Rain Light Rain
5:53 PM 50.0 °F 46.0 °F 86% 29.15 in 8.0 mi SE 15.0 mph - 0.05 in Rain Light Rain
6:53 PM 51.1 °F 45.0 °F 80% 29.10 in 10.0 mi SE 17.3 mph - 0.00 in Rain Light Rain
7:53 PM 51.1 °F 44.1 °F 77% 29.05 in 10.0 mi SE 21.9 mph 27.6 mph 0.01 in   Overcast
8:53 PM 52.0 °F 43.0 °F 71% 29.02 in 10.0 mi SE 17.3 mph - 0.00 in   Overcast
9:53 PM 53.1 °F 42.1 °F 66% 28.99 in 10.0 mi SE 19.6 mph 31.1 mph 0.00 in Rain Light Rain
10:53 PM 53.1 °F 42.1 °F 66% 28.96 in 10.0 mi ESE 21.9 mph 31.1 mph 0.00 in   Mostly Cloudy
11:53 PM 54.0 °F 42.1 °F 64% 28.94 in 10.0 mi ESE 25.3 mph 33.4 mph N/A   Clear